Location: Namasale
(1.5000°N, 32.6167°E)
Time: 19:00:35
(UTC+00:00)

Cosmos 2184 Rocket - Pass Details

Date: 09 April 2020
Orbit: 958 x 1003 km, 82.9° (Epoch: 27 May)

Event Time Altitude Azimuth Distance (km) Brightness Sun altitude
Rises 17:28:30 0° 0° (N) 3,644 7.1 -23.9°
Reaches altitude 10° 17:31:00 10° 2° (N) 2,694 6.4 -24.5°
Maximum altitude 17:37:09 75° 87° (E) 994 3.8 -26.0°
Enters shadow 17:38:57 48° 159° (SSE) 1,239 4.3 -26.5°
